Wind_Speed
55 55 56 57 58 59 59 60 61 60 59 59 61 62 61 60 60 62 58 52 54 57 58 60 61 63 62 60 61 63 64 64 63 64 65 64 62 61 62 61 58 55 57 62 63 63 62 61 59 58 56 55 53 50 47 49 50 47 43 39 37 37 39 45 44 36 37 46 49 54 58 61 62 61 58 55 53 50 47 46 45 43 39 36 34 33
52 53 54 55 56 56 56 58 57 57 58 60 62 61 61 61 61 63 58 50 54 59 58 60 61 61 62 61 60 61 62 62 62 63 64 63 61 60 60 59 58 57 59 60 61 62 61 59 56 53 52 50 47 45 46 46 45 43 40 38 36 36 37 41 42 41 44 48 51 55 58 59 60 58 56 53 50 47 44 43 42 39 35 32 30 30
50 51 52 53 52 52 54 55 55 56 58 59 60 60 60 61 61 62 56 50 57 61 59 59 59 60 62 61 60 60 61 60 60 61 62 62 61 59 57 56 56 56 57 59 59 60 59 56 53 51 49 45 42 43 44 44 42 40 38 36 35 33 34 36 35 37 42 46 49 53 55 56 56 55 53 51 48 46 43 42 40 37 32 29 27 27
49 50 50 49 49 50 52 53 53 54 56 57 58 59 59 60 61 60 56 55 59 60 59 58 58 60 61 61 60 60 60 58 59 61 61 61 59 56 53 52 53 53 54 56 56 56 55 54 51 49 46 41 40 42 43 43 41 39 37 34 34 33 35 35 30 31 41 46 50 51 52 53 54 53 52 50 48 46 44 43 40 37 32 28 26 25
48 47 47 47 48 50 51 52 52 53 55 56 57 58 59 60 60 59 56 56 57 59 60 57 58 60 60 60 60 59 59 58 59 59 58 57 55 52 51 50 50 51 52 54 54 53 51 50 48 47 44 40 40 40 40 40 37 35 35 35 35 34 36 35 28 31 41 47 51 53 54 55 55 54 52 50 48 47 45 43 39 36 33 29 26 24
46 44 46 47 48 49 50 50 51 52 53 54 55 57 58 58 58 57 55 55 56 58 59 58 59 59 59 60 60 59 59 58 57 55 54 54 52 51 49 48 48 49 50 51 52 50 46 44 45 46 44 42 40 38 37 37 34 33 34 35 34 31 31 31 27 32 42 48 53 56 56 56 55 55 53 50 47 46 44 41 37 34 32 31 28 25
43 44 46 47 47 48 48 49 50 50 51 52 54 55 56 55 55 54 52 54 56 57 58 59 59 58 59 59 59 59 58 56 54 52 51 50 47 48 46 45 46 46 48 49 47 44 40 41 44 45 44 42 38 35 32 32 32 31 30 30 28 24 24 23 25 35 45 51 53 55 56 56 56 54 52 49 46 44 41 38 35 32 32 31 30 27
43 45 46 46 46 47 47 48 48 49 50 51 52 52 52 52 52 51 51 53 55 56 57 58 57 56 57 58 58 58 57 55 53 50 50 48 45 46 43 41 44 44 46 45 40 36 38 43 45 42 41 40 35 29 25 25 26 24 23 24 22 20 20 20 28 41 49 51 52 53 53 54 54 53 49 46 43 40 37 35 33 32 31 31 31 30
43 45 46 45 46 47 47 47 47 48 48 48 49 49 49 49 49 49 50 51 53 55 56 57 56 55 55 57 58 56 54 53 52 50 50 48 45 44 40 37 39 40 38 33 30 35 40 41 39 36 35 33 27 20 15 13 14 13 16 22 22 19 17 20 32 43 47 48 49 46 45 47 48 48 46 42 39 37 35 33 32 31 30 31 31 30
43 44 45 45 47 48 47 45 46 47 47 47 47 47 47 47 47 48 49 50 53 54 54 55 54 54 56 56 55 55 53 51 51 50 47 45 42 39 36 34 36 35 28 24 28 35 35 33 33 31 27 20 14 12 14 15 16 18 21 22 24 21 17 21 34 44 47 47 45 41 40 42 44 44 43 41 38 36 34 32 31 30 29 29 29 29
43 45 46 47 48 48 46 46 47 47 46 46 47 46 46 46 47 48 48 50 52 52 53 53 52 53 55 53 51 53 51 47 48 46 42 41 38 34 34 36 37 32 25 25 31 31 27 26 30 28 22 19 21 27 33 36 34 35 35 32 31 30 25 26 33 40 46 48 41 37 37 39 41 42 41 39 37 35 34 32 30 28 28 27 27 27
45 46 47 48 48 47 47 47 47 47 46 46 46 46 46 46 47 48 48 49 50 51 51 50 50 52 54 51 47 48 49 46 44 42 39 39 37 33 33 36 36 34 31 32 31 27 23 24 28 28 27 28 31 36 38 39 40 41 41 41 40 40 38 37 35 31 34 40 39 36 34 33 36 37 38 37 36 34 31 30 28 27 27 26 26 26
46 46 47 48 47 47 47 47 47 47 46 46 46 46 45 47 48 47 47 47 48 50 49 49 49 50 52 50 43 43 46 45 43 42 39 37 36 35 35 35 35 37 40 38 32 27 25 24 27 32 35 32 31 35 36 38 40 42 43 44 44 43 44 45 43 37 29 28 33 34 32 31 31 30 31 32 32 31 29 28 27 27 27 27 26 26
45 46 46 46 46 47 47 47 47 47 47 47 46 46 46 48 48 47 46 46 48 49 48 48 48 49 51 47 40 38 39 39 40 40 37 35 36 35 33 34 36 41 44 40 35 34 33 29 29 35 38 35 34 37 38 40 42 43 44 45 45 44 45 46 46 45 36 27 28 32 32 31 31 29 29 29 28 28 27 26 27 27 28 27 27 27
45 45 46 47 47 48 48 48 48 48 48 47 47 46 47 49 49 47 46 47 49 49 49 49 48 49 50 46 42 42 40 38 38 38 38 37 35 34 33 33 33 36 37 36 37 39 39 36 33 35 39 38 37 40 42 42 42 42 42 44 46 47 47 48 48 46 43 35 30 29 29 29 31 32 32 31 31 28 27 27 27 27 27 27 28 28
45 45 47 47 47 48 49 48 49 48 48 48 47 47 48 50 49 48 47 48 50 50 48 48 48 48 47 45 44 44 41 38 36 35 37 36 34 36 35 32 31 32 33 36 40 41 41 40 37 36 40 41 40 41 43 43 43 42 43 44 47 49 49 49 49 48 46 42 37 33 31 32 35 37 36 35 34 31 29 29 29 29 29 29 29 29
45 46 46 46 47 49 49 49 48 48 49 49 48 49 50 51 49 48 48 48 49 49 47 47 47 46 46 45 44 41 38 37 37 36 34 34 36 38 37 33 33 36 39 40 41 41 42 43 41 41 42 44 44 43 43 43 42 42 43 44 46 50 51 49 50 50 49 47 44 39 36 37 39 41 40 38 36 34 32 32 33 33 33 33 32 32
45 45 45 45 47 48 48 48 48 49 50 49 49 50 51 51 50 49 49 49 49 49 48 47 48 47 47 47 46 44 41 40 39 37 34 33 34 35 35 35 37 40 42 42 42 44 45 46 46 46 46 45 46 45 43 43 42 41 43 44 46 50 53 53 51 52 53 51 47 41 37 38 41 43 43 41 39 39 39 39 38 37 36 36 35 34
43 44 44 46 47 47 47 48 48 49 50 49 50 52 51 51 51 50 50 50 49 49 49 49 50 50 50 49 48 47 46 45 43 39 34 33 33 32 33 37 40 43 45 46 46 47 48 48 49 49 47 46 46 45 43 41 41 42 43 44 47 50 53 55 54 53 54 53 49 44 36 32 40 45 45 43 42 41 42 42 40 38 37 37 38 37
40 43 45 46 47 46 47 47 47 49 50 50 51 52 51 51 52 50 50 50 50 51 51 51 51 51 50 48 48 48 49 48 46 43 37 34 34 35 37 39 41 43 44 45 47 48 48 48 49 48 47 46 45 43 41 40 41 43 43 45 49 49 49 52 54 53 54 52 50 48 36 27 36 44 44 45 45 43 43 41 40 39 38 40 40 41
38 42 44 45 45 45 47 47 48 50 51 50 51 51 51 52 52 51 50 50 50 52 52 52 52 52 51 49 49 51 52 50 48 47 44 42 41 42 43 43 43 43 44 44 46 47 48 48 48 47 46 45 42 38 38 39 41 42 43 45 49 50 48 49 51 53 53 52 52 50 41 35 40 46 45 46 47 47 46 44 42 42 42 44 45 46
39 40 41 42 42 44 47 48 48 50 50 50 51 51 52 53 53 53 52 51 51 52 51 52 53 53 53 53 53 55 55 52 50 49 50 50 50 49 49 49 48 48 47 47 47 48 48 47 47 46 46 45 39 34 36 38 39 41 41 43 47 50 49 48 51 53 53 54 56 54 46 43 48 51 50 50 51 51 50 48 47 44 43 45 47 50
39 39 38 39 40 43 46 45 46 49 50 50 51 51 52 53 53 54 53 53 54 53 52 53 53 53 53 54 55 56 55 53 52 52 53 54 53 53 53 53 52 52 50 49 49 49 49 48 48 47 46 45 42 39 40 41 42 42 43 44 47 49 50 51 52 54 55 56 58 57 51 49 53 56 56 55 55 54 53 52 51 49 48 49 50 52
40 39 38 39 39 42 43 42 45 49 49 49 50 51 51 51 52 53 53 54 55 54 54 55 54 54 53 53 55 57 56 54 54 55 54 54 54 54 54 54 53 53 52 51 51 50 50 50 49 48 47 46 44 43 43 44 47 47 47 48 51 52 54 54 54 56 58 60 61 60 58 59 60 60 60 60 58 57 57 56 56 57 57 57 57 58
43 41 40 39 39 41 41 41 46 48 47 48 50 50 50 51 52 53 53 55 55 54 54 54 55 56 55 55 56 57 56 55 55 56 54 54 54 54 54 53 53 52 51 52 52 52 52 51 50 49 48 46 44 44 43 43 45 48 49 50 52 54 55 56 57 57 59 62 64 65 65 66 66 65 65 64 62 61 61 62 63 63 63 63 63 62
46 45 43 42 42 42 42 44 46 45 45 47 49 49 50 52 53 54 54 54 54 54 54 55 56 57 57 57 57 58 57 55 55 55 55 55 55 54 54 52 51 51 52 53 54 53 52 51 50 49 48 47 45 44 43 41 42 46 50 52 54 56 57 57 58 60 60 62 65 67 69 70 70 70 69 69 68 67 67 68 68 67 66 66 65 62
48 48 47 47 45 44 45 45 45 44 45 47 47 49 51 52 52 53 53 54 54 53 53 54 56 57 56 57 57 58 57 56 55 54 55 56 56 55 54 53 52 52 53 54 54 53 52 52 52 51 50 48 47 45 44 44 46 48 51 54 57 59 60 59 60 63 64 65 66 68 70 71 71 70 70 70 70 69 69 69 69 68 68 66 64 61
47 48 49 49 48 48 48 47 46 47 47 47 46 48 50 51 52 53 53 54 53 53 53 53 53 54 56 56 57 59 58 57 57 56 56 57 57 56 55 55 55 54 54 55 55 54 54 54 54 54 53 52 51 50 49 50 52 53 54 56 57 58 59 59 60 63 66 68 69 70 71 71 72 71 71 71 71 70 70 70 70 70 69 67 63 61
45 47 50 51 50 50 50 49 51 51 50 49 48 48 49 50 51 52 52 53 54 55 55 53 51 52 55 55 56 59 59 58 59 59 59 58 58 57 56 57 57 56 56 57 57 57 57 57 57 56 56 56 55 55 55 56 57 58 59 60 60 61 60 60 61 62 64 66 68 70 72 73 75 75 76 75 74 74 73 71 71 70 68 66 64 62
44 46 49 51 51 52 51 52 54 54 53 51 51 51 51 51 52 52 51 52 53 53 53 52 52 53 55 56 56 58 58 59 60 60 60 59 59 58 57 57 57 56 57 57 58 58 58 58 58 58 57 57 57 57 58 58 58 59 60 60 61 62 61 61 61 62 63 65 66 68 70 71 73 74 75 75 74 72 70 68 67 67 66 66 64 62
45 46 47 48 50 52 52 54 55 56 56 54 54 54 53 53 53 52 51 52 52 51 51 52 53 54 55 57 58 59 59 59 60 60 59 59 58 57 57 57 56 56 56 57 56 57 57 58 58 58 58 58 58 57 58 58 59 59 60 60 61 61 61 61 61 62 62 64 65 67 68 69 71 71 72 72 71 70 69 68 68 68 67 66 64 62
46 46 46 46 48 50 52 55 56 58 58 57 56 57 56 55 54 54 54 55 54 54 54 54 55 55 55 57 60 61 60 60 60 60 59 58 57 56 57 57 57 57 57 57 57 57 57 57 57 57 58 58 58 59 59 59 60 60 60 61 61 61 62 62 62 62 63 64 65 66 67 68 69 70 70 71 71 71 71 71 71 71 69 66 63 61
47 47 47 47 47 49 52 55 56 57 58 58 58 59 58 58 58 58 58 58 57 57 57 57 56 57 57 59 61 62 62 62 62 62 61 61 59 57 57 57 57 58 58 58 59 59 59 59 59 59 59 60 60 61 61 62 62 62 62 62 62 62 63 63 63 63 64 65 66 67 67 67 68 69 70 70 71 71 72 72 72 71 70 68 64 60
50 50 51 50 49 51 53 54 55 56 56 56 58 61 60 58 59 60 60 59 60 60 60 59 59 59 60 60 62 62 62 63 63 63 63 62 60 59 59 58 58 58 59 60 60 61 62 62 62 62 61 62 63 63 64 64 64 64 64 64 64 64 64 64 64 64 65 66 67 67 68 68 69 69 70 70 71 71 72 72 72 72 71 70 67 64
53 53 53 52 52 54 54 54 55 56 54 56 59 61 60 58 58 58 58 58 59 61 61 61 62 62 62 62 63 63 63 64 64 64 63 62 61 61 60 58 57 57 59 61 62 63 64 64 64 64 64 65 66 66 66 66 66 67 67 66 66 66 66 66 65 65 66 67 68 68 69 69 70 70 71 71 72 72 72 73 73 73 73 72 71 69
56 56 55 54 55 56 54 54 56 56 55 58 60 60 58 58 57 57 56 55 56 59 60 61 62 63 64 65 65 65 65 66 65 65 64 63 63 62 61 60 59 60 61 63 64 64 65 66 66 65 65 67 68 68 68 68 69 69 69 69 69 69 69 68 67 67 69 69 70 70 71 71 72 73 73 74 74 74 75 75 76 76 76 75 75 74
58 58 58 59 60 60 58 58 59 57 56 58 59 59 58 58 58 57 56 55 55 56 57 58 59 61 62 63 64 65 66 67 67 66 65 64 63 63 63 62 63 63 64 64 65 65 66 67 67 67 66 67 68 69 70 71 71 71 71 71 72 72 72 70 68 68 69 69 70 70 71 72 73 74 75 76 77 77 78 79 79 79 80 79 79 79
61 61 62 64 65 64 62 62 62 61 60 59 60 60 59 59 59 59 57 57 57 56 56 57 58 59 60 61 62 63 65 66 66 65 64 63 64 65 65 64 65 65 66 66 66 66 67 68 69 68 67 68 69 70 70 71 72 72 72 72 72 71 70 68 65 64 64 65 66 67 69 70 72 74 75 77 78 79 79 80 81 81 81 81 81 81
64 64 65 66 66 65 64 63 64 65 64 62 62 63 62 61 61 60 59 59 59 58 58 59 59 60 60 61 62 63 64 64 62 61 62 63 63 64 65 66 66 67 68 68 69 69 69 70 70 69 68 67 67 67 68 68 69 69 70 71 72 70 68 66 65 65 64 65 65 66 68 69 71 72 74 76 77 77 77 78 78 78 78 77 77 77
66 66 66 67 67 67 67 66 67 69 67 65 65 66 66 65 63 62 61 60 61 62 62 62 62 62 61 63 64 64 64 64 61 61 63 64 63 63 64 65 66 67 68 69 70 70 70 70 69 69 68 66 65 66 67 67 68 69 70 71 72 71 70 69 69 69 69 69 69 69 69 70 71 72 73 74 75 75 74 75 74 74 73 73 73 73
68 69 69 69 69 71 71 70 71 72 70 68 68 68 69 68 67 66 65 63 63 65 65 65 65 64 64 66 65 63 64 64 63 64 65 65 64 64 65 65 66 66 67 68 69 69 69 68 68 68 67 67 67 68 69 71 72 72 73 73 74 74 74 73 73 74 74 74 74 74 73 73 73 73 74 75 75 75 74 74 74 73 73 72 72 72
72 71 71 72 74 75 74 73 74 75 73 71 71 72 72 72 71 70 69 67 67 69 69 67 67 67 68 68 66 64 66 67 66 65 66 67 67 67 67 67 67 68 68 69 69 70 70 69 69 69 68 68 69 69 70 72 73 74 75 76 77 77 77 77 77 77 78 78 78 78 77 77 76 75 75 76 77 77 77 76 76 75 75 75 74 74
74 73 74 76 77 76 76 76 77 77 75 74 74 74 75 75 75 74 73 71 71 72 72 71 70 70 70 69 68 68 69 69 68 68 68 69 69 69 69 69 69 69 70 70 71 71 71 71 70 70 70 70 71 71 72 73 74 75 77 78 79 79 80 80 80 80 80 80 80 80 80 79 78 78 77 78 78 79 78 78 78 78 78 77 78 77
77 76 78 79 78 77 78 79 79 78 77 77 77 77 77 78 78 77 76 75 75 75 75 75 73 72 72 71 71 71 71 72 71 71 71 71 72 72 72 72 72 72 72 72 72 73 73 73 73 73 73 73 73 74 75 76 77 78 79 80 80 81 81 82 82 82 82 82 82 82 82 81 81 80 80 79 79 79 79 79 79 79 79 79 79 79
78 79 81 82 81 81 82 83 82 81 80 80 80 80 80 80 80 80 80 79 79 78 78 77 76 76 75 75 74 74 75 75 74 74 74 74 75 75 76 76 76 76 76 75 75 75 75 76 76 76 77 77 77 78 79 79 80 81 81 82 83 83 83 84 84 84 84 84 84 84 84 84 84 83 83 82 81 80 80 80 80 80 81 82 81 81
75 77 80 82 83 84 85 85 85 85 84 83 83 83 83 83 83 83 83 83 83 83 82 81 80 80 79 78 78 78 78 78 78 78 78 78 78 79 79 79 80 80 80 80 79 79 79 79 79 80 80 81 81 82 82 82 83 84 84 85 85 85 86 86 86 86 86 86 86 86 86 85 85 85 85 84 84 83 83 83 83 83 83 84 84 83
70 72 75 78 81 82 83 84 85 85 85 85 85 85 85 85 85 86 86 85 86 87 86 84 84 83 83 82 82 81 81 81 81 82 82 82 82 82 82 83 83 83 83 83 83 83 83 83 83 83 84 85 85 85 86 86 86 87 88 88 88 88 88 88 88 88 88 88 88 88 87 87 86 86 86 86 86 86 85 85 84 85 85 86 87 87
65 68 71 74 76 77 78 79 81 82 83 84 85 85 86 86 86 87 87 87 87 88 88 87 86 85 85 84 84 84 84 84 85 85 85 85 85 85 85 85 86 86 86 86 86 86 86 86 86 87 87 87 88 88 89 89 89 89 90 90 90 89 89 90 90 90 90 91 90 90 89 89 88 88 88 88 88 88 87 87 86 86 86 86 88 89
61 64 67 68 70 70 71 72 75 77 79 80 81 82 83 84 85 85 86 86 86 87 87 87 87 86 85 84 85 85 86 86 87 87 87 87 87 87 87 88 88 89 88 88 88 88 89 89 89 90 90 90 90 90 91 91 91 91 92 91 91 90 90 90 90 91 91 92 91 91 90 89 88 88 88 88 88 87 88 88 88 87 87 86 88 90
56 58 61 63 64 64 65 67 69 71 72 73 74 76 78 79 80 81 82 83 83 84 84 85 85 84 84 83 82 83 83 84 86 87 88 88 88 88 88 89 89 90 89 89 90 90 91 91 91 91 91 91 91 91 91 92 92 93 92 91 90 90 90 90 90 90 91 91 91 90 90 88 88 87 86 86 86 86 86 86 86 87 86 85 85 88
52 54 55 57 58 58 59 61 64 65 66 66 67 70 72 73 74 76 77 78 79 80 81 82 82 82 82 81 81 80 81 81 82 84 85 86 86 87 87 88 89 89 89 89 90 90 90 90 90 91 91 90 90 90 90 91 91 91 90 89 89 88 88 89 89 89 89 89 89 89 88 87 86 85 84 83 83 84 84 84 84 84 85 84 84 85
Wind_Direction
236 236 236 236 236 236 237 238 239 240 241 243 244 244 245 246 246 248 247 246 249 249 249 250 251 252 252 251 251 253 255 257 258 259 261 262 262 263 264 265 264 264 265 267 269 270 271 271 272 274 276 277 278 280 278 275 274 274 272 269 264 258 252 248 245 243 243 249 254 260 267 273 276 280 282 283 283 280 278 277 275 272 269 266 263 260
236 235 236 235 235 236 237 238 238 239 239 240 242 243 244 245 245 247 246 245 248 249 248 250 251 252 254 253 252 254 255 257 259 260 262 262 262 263 264 265 266 266 267 269 270 271 272 273 275 277 279 279 281 280 276 274 274 275 274 271 267 260 254 252 249 248 251 255 259 264 268 272 276 279 280 281 281 279 276 275 272 269 267 264 261 257
235 235 235 235 235 236 236 237 237 237 238 239 241 242 243 244 245 246 247 245 247 248 248 249 251 253 255 255 254 255 256 257 259 260 261 262 263 263 264 266 267 268 268 269 270 271 273 275 278 280 280 281 280 277 276 275 276 276 275 272 268 263 256 255 255 255 257 258 261 265 269 272 276 278 279 279 279 278 277 274 270 268 266 264 258 254
234 234 235 235 235 235 236 236 236 237 238 239 240 242 243 243 245 246 245 244 246 249 250 250 252 254 255 256 256 256 256 257 258 259 261 263 263 264 265 266 267 267 268 270 271 272 274 277 280 280 280 280 276 274 274 274 275 275 274 273 272 267 261 258 254 254 260 264 267 271 275 278 279 279 279 278 278 278 277 274 270 267 265 264 260 253
234 234 234 234 234 234 235 235 235 236 237 238 239 241 242 243 244 245 245 245 247 250 251 251 251 253 255 256 257 257 257 257 258 260 261 262 264 265 265 265 266 267 269 271 272 274 277 280 280 281 281 278 275 274 274 274 276 275 275 275 274 270 266 263 253 250 259 266 270 276 281 282 281 280 279 278 278 278 276 273 269 267 267 265 261 255
234 234 234 234 234 234 235 235 236 236 237 238 239 240 241 242 244 245 246 247 247 249 250 250 251 252 254 256 256 257 257 257 258 259 261 263 264 265 264 265 266 268 271 272 274 277 279 279 280 281 280 277 275 275 276 278 279 279 278 277 278 275 270 267 251 246 259 268 272 278 282 283 282 280 279 279 278 276 273 271 268 267 267 267 263 257
233 233 234 234 234 234 235 235 236 236 237 238 239 240 242 243 245 246 246 246 247 248 250 250 250 252 253 255 257 258 258 259 259 260 261 262 262 264 265 266 267 268 269 272 277 278 277 278 280 281 280 277 277 277 280 284 286 289 289 284 281 275 276 273 249 250 267 275 277 280 282 283 282 280 279 279 277 275 271 268 266 264 263 264 262 257
232 232 233 233 234 235 235 235 236 237 237 238 240 241 242 243 244 245 245 246 247 248 249 250 250 251 254 255 256 257 258 259 259 260 261 261 263 265 266 265 266 266 268 274 279 275 273 278 280 280 280 279 277 277 280 283 289 299 299 285 273 272 280 272 253 261 275 279 280 283 283 282 280 279 279 277 275 273 270 268 265 264 263 261 260 258
232 232 233 234 235 235 235 236 237 238 238 239 240 241 242 243 243 244 244 245 247 247 249 250 251 251 253 254 255 257 257 259 259 260 262 264 267 268 267 264 263 266 271 276 274 269 273 280 281 281 281 280 278 283 285 280 282 286 280 272 270 276 275 254 256 268 274 277 281 283 282 282 280 278 276 273 271 270 268 268 267 267 265 262 260 258
232 232 233 233 234 234 234 235 236 237 237 238 239 240 241 242 242 242 243 244 245 246 248 250 251 252 252 253 255 257 258 259 260 260 261 263 263 264 265 263 264 269 269 260 254 262 272 277 279 283 283 275 261 254 248 233 229 228 232 246 257 259 245 239 256 267 271 276 279 277 277 278 278 277 274 271 269 267 268 269 269 268 266 263 260 257
231 231 231 231 232 233 233 233 234 235 236 237 238 239 239 240 241 241 242 243 245 246 247 249 250 252 252 253 254 256 257 258 260 260 259 259 258 256 258 258 260 264 256 241 246 258 264 267 278 282 271 247 217 212 221 218 214 215 214 217 230 232 221 229 249 261 270 273 269 269 272 273 275 275 272 271 270 270 271 271 271 270 268 265 262 259
230 230 230 231 232 232 232 233 234 235 235 236 238 239 239 240 240 241 242 243 246 247 248 249 249 251 252 252 252 256 258 256 256 257 255 256 253 246 246 250 255 259 252 245 254 261 256 262 278 275 258 242 222 213 218 216 212 215 214 213 221 223 216 221 231 241 262 268 263 265 271 275 280 277 272 272 273 273 274 274 274 273 270 267 265 262
231 230 231 232 232 233 233 233 234 235 235 236 237 238 239 240 240 240 242 243 245 247 247 247 247 249 251 251 252 257 260 256 253 253 252 253 251 242 239 242 249 254 252 253 262 259 248 252 264 263 258 251 236 225 222 219 217 218 219 220 224 224 217 220 224 222 234 258 264 265 270 277 282 279 274 273 272 273 274 275 275 273 272 270 268 267
232 232 233 233 233 233 233 233 234 234 235 235 236 237 238 240 240 240 241 242 243 245 245 245 246 247 249 250 249 251 254 255 253 252 249 248 248 245 237 233 238 244 245 250 255 249 246 248 248 252 258 255 244 237 232 228 224 222 223 226 230 229 224 224 226 225 225 235 254 264 267 269 271 274 279 280 278 276 274 273 272 271 272 271 270 270
234 233 233 233 233 233 233 232 233 233 234 235 236 237 238 240 240 239 239 240 242 243 243 244 245 246 249 250 246 244 247 252 254 254 252 249 246 242 234 232 240 245 243 243 244 245 249 248 239 245 256 255 246 242 239 235 232 229 229 231 233 234 233 230 228 229 230 230 240 258 262 262 265 271 279 284 284 280 275 272 272 272 273 273 274 273
233 233 233 233 233 234 233 233 233 233 234 235 235 236 238 240 240 239 239 241 243 244 245 247 247 248 250 251 248 247 249 251 251 252 254 253 246 240 236 237 243 245 242 240 241 244 246 242 236 239 248 251 246 242 241 239 237 234 232 233 234 234 235 233 230 231 235 234 238 252 261 265 269 271 274 279 280 278 275 274 274 275 275 275 275 275
233 233 233 233 233 234 234 234 234 234 235 235 235 236 238 240 241 241 241 241 244 246 246 248 249 249 250 250 249 249 248 246 246 248 251 251 247 244 241 237 237 240 244 246 246 246 244 241 239 238 241 246 248 246 243 242 240 237 234 234 234 233 233 233 232 232 234 236 240 249 260 266 269 271 272 274 274 272 271 272 274 276 277 277 276 276
234 234 234 234 234 234 235 235 235 235 235 236 236 237 238 240 241 242 242 243 244 246 246 247 248 248 248 249 249 248 245 244 246 247 248 249 251 251 245 238 236 238 242 245 245 244 243 243 243 241 240 245 250 249 247 246 244 241 239 238 237 236 234 233 234 234 234 236 238 243 252 262 266 269 271 272 271 269 268 270 273 276 278 279 278 278
235 235 234 234 235 235 235 236 236 237 237 236 237 238 239 240 241 241 243 243 244 245 246 246 247 248 248 249 250 251 249 248 247 246 245 246 249 251 249 243 239 237 237 239 241 242 244 246 246 246 245 246 249 250 250 250 249 245 242 241 241 240 238 235 235 236 236 236 237 238 244 260 268 267 267 268 269 270 270 272 275 277 278 278 278 278
236 237 235 234 234 235 235 235 236 238 238 237 237 238 239 241 242 242 243 244 245 245 246 247 247 248 249 251 252 252 252 251 249 247 244 241 243 246 247 246 244 241 239 239 242 245 246 248 249 249 249 249 250 251 251 250 249 247 242 239 240 242 241 238 235 235 236 237 238 238 236 247 261 262 261 262 264 265 267 270 273 274 275 276 277 278
235 237 237 236 235 235 236 235 234 236 237 237 238 239 240 241 242 242 243 244 245 245 246 247 248 248 249 250 250 251 251 251 251 250 247 245 245 246 248 250 250 249 247 246 247 248 248 250 251 252 252 251 251 254 257 256 254 251 245 239 239 240 241 238 234 233 235 237 239 238 232 233 245 251 253 256 258 259 261 263 265 268 272 275 276 276
234 236 237 237 237 236 236 235 235 236 237 237 238 239 239 241 242 242 241 242 244 245 245 246 248 248 248 248 248 250 251 252 252 252 252 251 250 251 252 254 255 255 255 254 253 252 252 252 253 253 253 253 251 250 253 256 258 257 252 245 242 241 241 239 234 232 234 237 239 239 235 235 241 245 249 253 253 253 255 257 261 266 273 277 277 277
234 236 236 236 236 237 236 235 236 237 236 237 238 239 239 240 242 243 242 243 243 244 245 245 247 248 249 249 249 250 251 252 252 252 252 253 254 255 255 256 257 258 258 258 257 256 256 255 254 254 254 254 251 245 242 243 247 251 252 250 247 245 244 241 237 234 234 237 239 240 241 244 247 249 251 253 253 253 253 254 258 265 274 278 279 278
234 234 234 233 234 236 236 234 235 237 236 236 237 238 239 240 241 243 243 243 244 244 245 246 246 246 247 248 249 250 250 250 250 251 252 253 254 254 255 255 257 258 258 259 258 257 257 256 256 255 254 254 253 250 246 242 241 243 247 249 248 248 246 244 242 239 237 238 241 244 247 251 254 255 255 256 257 257 257 257 261 268 276 280 279 279
232 232 233 233 233 235 235 234 235 236 235 235 236 236 237 238 239 240 241 242 243 244 244 245 246 245 245 246 248 249 250 249 250 251 252 252 252 252 253 254 255 256 257 257 257 257 257 258 257 257 257 256 255 254 251 247 242 241 243 246 247 248 249 248 246 245 244 242 244 247 251 254 257 259 260 261 262 263 264 266 269 274 277 279 279 279
230 230 230 231 232 233 234 234 234 234 234 235 235 235 236 236 238 240 241 242 243 243 244 245 246 246 246 246 247 249 250 250 251 251 251 251 251 251 252 253 253 254 255 255 256 257 258 258 258 259 259 258 256 254 251 247 244 242 242 243 244 245 248 249 248 249 249 249 249 251 254 257 259 261 263 264 266 267 270 272 274 276 277 277 277 277
231 231 231 231 230 232 235 236 236 235 234 234 234 234 235 236 238 239 241 242 243 243 245 246 247 248 248 248 248 249 250 250 250 250 251 251 251 252 254 254 254 254 254 255 256 258 259 259 260 260 259 257 255 252 249 246 245 244 244 244 244 246 248 248 248 248 249 251 252 254 256 258 260 261 263 265 266 268 270 272 274 275 275 275 275 275
234 234 234 234 232 232 234 236 237 237 235 235 235 235 236 236 237 238 239 241 242 242 243 244 247 249 249 249 249 250 250 250 250 251 252 253 253 254 255 255 255 255 255 255 257 258 258 259 259 259 258 256 255 252 250 248 247 246 246 246 247 248 249 250 249 249 249 249 251 253 256 257 259 260 262 263 265 267 269 271 272 273 273 273 273 273
235 235 236 237 237 235 235 235 237 238 237 235 235 235 236 237 237 238 239 240 240 241 241 242 244 246 248 249 250 251 251 252 252 252 252 253 255 256 256 256 256 255 255 255 256 257 257 258 258 257 257 256 255 254 253 252 251 250 250 250 250 251 252 252 252 252 251 251 251 252 254 256 257 259 260 262 264 266 268 270 270 270 270 270 271 272
235 236 236 238 239 239 238 238 239 241 240 239 238 237 237 237 238 238 239 239 240 241 241 242 242 243 245 248 249 250 251 252 253 252 252 253 254 255 256 257 257 257 256 256 256 256 257 257 257 257 257 256 256 256 256 255 255 254 253 253 253 253 253 254 254 254 255 254 254 254 255 257 258 259 261 262 263 264 265 266 267 267 267 268 270 271
236 237 237 238 239 240 240 240 241 243 243 243 243 242 241 241 241 241 241 241 241 241 241 241 241 242 243 245 247 248 249 249 251 253 254 254 254 254 256 256 256 257 257 257 257 258 258 258 259 259 259 258 258 257 257 256 256 256 256 256 256 255 255 255 255 256 256 256 256 257 257 258 259 260 262 263 263 263 263 263 264 266 268 269 270 272
237 238 238 238 239 241 242 242 242 243 244 244 244 245 245 245 245 245 244 244 244 244 243 243 243 243 243 244 246 248 249 250 252 254 255 256 256 256 256 256 256 257 259 260 260 261 261 261 260 260 260 260 260 259 258 258 257 257 257 257 258 258 257 257 257 257 257 257 258 258 259 259 260 261 262 263 264 264 264 265 265 267 269 270 271 273
237 238 239 238 239 240 241 242 243 244 245 246 246 247 246 245 245 245 245 245 246 246 246 246 246 246 245 245 247 249 251 252 253 254 255 257 258 258 257 258 258 258 260 261 262 262 263 262 262 262 261 261 260 260 259 259 259 258 258 258 258 258 258 258 258 258 258 258 258 258 259 260 261 261 262 263 264 265 266 267 268 269 270 270 271 272
236 238 239 239 240 240 241 242 243 244 246 247 248 248 248 247 246 246 246 246 247 248 248 248 249 249 249 249 250 251 252 253 254 255 256 257 258 259 259 259 260 262 263 263 263 263 263 263 263 263 263 263 262 262 261 261 261 260 260 260 259 259 259 258 258 258 258 258 258 258 259 259 260 261 262 263 264 265 266 267 268 269 270 271 271 271
235 237 239 239 240 241 241 242 243 245 246 247 247 248 250 250 249 249 249 248 248 249 250 250 250 251 252 252 253 254 255 255 256 257 258 259 260 260 261 262 263 264 263 263 263 263 263 263 264 264 264 264 264 263 263 263 263 263 262 262 261 261 260 259 259 259 259 259 259 260 260 260 261 261 262 263 264 265 266 266 267 268 268 269 270 270
233 236 239 240 241 242 242 242 243 243 244 245 247 249 250 251 251 251 251 251 250 250 250 251 252 252 253 253 254 255 256 257 257 258 259 260 261 262 262 263 262 261 260 261 262 262 263 263 263 264 264 265 266 266 266 266 265 265 265 266 265 264 263 262 261 261 261 261 261 261 261 262 262 262 263 263 264 264 264 265 266 266 267 267 268 268
233 235 237 239 239 240 241 242 244 244 243 245 247 249 250 252 252 252 251 251 251 251 252 252 253 253 254 254 255 255 256 256 257 258 259 260 261 262 262 262 261 261 261 261 262 263 263 263 263 264 264 265 267 268 268 268 268 268 268 268 267 266 265 264 263 262 262 262 261 261 261 261 261 262 262 262 263 263 263 264 264 265 266 267 267 267
233 234 236 238 239 240 241 243 245 245 245 245 247 248 249 250 251 253 253 252 251 251 251 252 253 253 254 255 255 255 255 255 256 257 258 259 259 260 261 261 261 261 262 262 262 263 263 264 264 265 265 266 267 268 268 269 270 270 270 269 269 268 268 268 266 264 263 262 262 261 261 261 261 262 263 263 263 264 264 265 265 266 266 267 267 268
234 235 236 239 241 242 243 244 245 246 246 246 247 249 249 249 249 251 252 254 254 253 252 251 251 252 253 254 255 255 255 255 256 257 257 257 257 257 258 258 259 259 259 260 261 261 262 263 265 265 266 266 267 267 267 267 268 268 269 269 270 271 272 271 270 268 267 266 265 264 263 263 263 264 264 265 266 266 266 267 267 268 268 268 269 269
236 236 237 239 241 243 243 243 244 246 246 246 247 249 250 250 250 250 250 251 253 254 254 254 253 252 252 252 253 254 256 257 258 258 258 257 256 256 256 256 257 257 258 258 259 260 260 261 263 264 264 263 262 262 263 264 265 265 266 267 269 271 272 271 271 270 270 269 268 267 266 266 266 266 267 267 268 268 269 269 269 270 270 270 270 270
237 237 238 239 240 241 242 242 243 244 245 245 246 247 249 250 250 250 250 250 251 252 253 254 256 256 255 254 254 254 256 257 257 257 258 258 258 258 257 257 257 257 257 258 259 260 260 260 260 261 261 260 259 260 261 262 263 264 264 265 266 267 268 268 268 268 268 268 268 268 268 267 267 268 268 269 270 270 270 271 271 272 272 271 271 270
237 238 239 239 240 241 241 242 243 244 245 245 246 247 248 249 249 249 249 249 250 251 251 252 253 255 256 257 258 258 258 258 257 257 258 258 258 258 258 258 258 258 258 258 258 258 259 259 260 260 260 259 259 259 259 260 261 262 263 263 264 265 266 266 266 266 266 267 267 268 268 268 268 268 269 269 270 270 271 271 272 273 273 273 272 271
238 239 240 241 241 242 243 243 244 245 245 246 247 247 248 249 250 250 250 249 249 251 252 252 252 253 255 257 258 259 259 260 260 260 260 260 260 260 259 259 260 260 260 260 260 259 259 258 259 259 260 260 260 260 259 259 259 259 260 261 261 262 263 264 264 265 265 266 266 267 267 268 268 268 268 268 268 269 269 270 270 271 271 271 272 272
238 239 240 242 242 243 244 245 245 246 246 247 247 248 249 250 251 252 252 252 251 252 253 254 254 255 255 256 257 257 258 259 260 260 261 262 262 263 263 263 262 262 262 263 263 263 263 262 262 262 262 262 262 262 262 261 261 261 261 261 261 262 262 262 262 262 263 263 264 264 265 265 265 265 264 264 264 265 265 266 266 267 267 268 268 269
239 239 239 241 242 242 244 245 245 246 246 247 247 248 249 250 251 252 253 253 253 253 253 254 254 255 255 256 256 257 257 258 259 259 260 260 261 261 262 263 263 263 263 263 263 263 264 264 264 265 265 265 265 265 265 265 265 265 265 265 265 265 265 264 264 264 264 264 264 264 264 264 264 264 263 263 262 262 262 262 262 263 264 264 265 265
245 244 243 243 243 243 244 245 246 246 246 247 248 248 249 249 250 252 252 253 254 254 254 254 254 255 255 255 256 257 257 258 259 259 259 260 260 260 261 261 262 263 263 263 264 264 264 264 264 265 265 265 266 266 266 266 266 266 266 266 266 267 267 267 267 267 267 266 266 266 266 266 266 265 265 265 264 263 262 262 262 262 262 263 263 263
248 248 248 248 248 248 248 248 249 249 250 250 250 250 251 251 251 252 253 253 254 255 256 255 255 256 256 256 257 257 258 258 259 259 259 260 260 260 261 261 262 262 263 263 264 264 264 265 265 265 265 265 265 266 266 266 266 266 266 267 267 267 268 268 268 269 269 269 268 268 268 268 267 267 267 266 266 265 264 263 263 262 263 263 263 263
247 248 248 248 249 249 250 250 251 252 252 253 253 253 254 254 254 255 255 255 256 257 258 258 258 258 258 258 258 258 259 259 259 259 260 260 260 261 261 261 262 262 263 263 264 264 265 265 265 265 265 265 265 266 266 266 267 267 267 267 268 268 268 269 269 269 270 270 270 269 269 269 268 268 268 267 267 266 266 265 263 263 262 262 263 263
247 248 248 249 250 250 251 251 251 252 252 253 253 254 255 255 256 256 257 257 258 258 259 260 260 260 259 259 259 259 259 260 260 260 261 261 261 261 261 262 262 263 263 263 264 264 265 265 265 265 266 266 266 267 267 268 268 268 268 269 269 269 269 270 270 270 270 271 270 270 270 269 269 268 268 267 267 266 265 265 264 263 262 261 262 263
248 249 249 250 251 251 252 252 252 252 253 253 254 254 255 255 256 256 257 257 258 258 259 260 260 261 261 260 260 259 259 259 260 260 261 261 261 261 261 262 262 263 263 264 264 264 264 265 265 266 266 267 267 268 268 269 269 269 270 270 270 271 271 271 271 271 271 271 271 271 271 270 269 269 268 267 267 266 265 264 264 263 262 261 260 261
249 250 250 251 252 252 252 253 253 254 254 254 254 254 255 255 255 256 256 257 257 257 258 259 259 260 260 260 260 259 259 259 259 259 260 260 261 261 261 262 262 263 263 264 264 264 265 265 266 266 267 267 268 268 269 269 269 270 270 271 271 271 271 272 272 272 272 272 272 271 271 270 270 269 268 268 267 266 266 264 263 263 262 261 259 258
Height
10569 10573 10577 10581 10584 10588 10592 10594 10598 10603 10608 10610 10609 10611 10615 10618 10620 10620 10626 10636 10636 10634 10635 10635 10635 10635 10638 10644 10646 10646 10647 10648 10650 10650 10649 10652 10657 10658 10659 10661 10665 10668 10667 10666 10665 10665 10666 10668 10670 10671 10674 10677 10679 10683 10685 10681 10677 10679 10683 10684 10684 10684 10684 10684 10685 10683 10679 10678 10680 10680 10678 10676 10674 10674 10673 10672 10671 10671 10670 10668 10668 10667 10667 10666 10664 10663
10565 10569 10572 10575 10579 10583 10587 10589 10593 10599 10601 10601 10601 10604 10608 10611 10613 10613 10621 10633 10629 10625 10628 10629 10629 10630 10631 10636 10640 10642 10643 10643 10645 10645 10644 10646 10650 10652 10654 10656 10658 10660 10660 10658 10658 10658 10660 10663 10666 10668 10671 10674 10676 10677 10675 10672 10672 10674 10676 10677 10677 10679 10679 10678 10678 10676 10674 10674 10675 10674 10673 10670 10668 10667 10666 10666 10666 10666 10665 10664 10663 10662 10662 10662 10661 10660
10560 10564 10566 10570 10575 10579 10580 10583 10588 10591 10592 10594 10596 10598 10602 10604 10606 10608 10619 10627 10620 10617 10621 10623 10625 10625 10625 10629 10634 10636 10637 10639 10640 10639 10638 10640 10644 10647 10649 10651 10651 10652 10653 10652 10652 10652 10656 10659 10662 10664 10667 10671 10672 10670 10666 10665 10667 10669 10670 10671 10672 10674 10673 10672 10673 10670 10668 10669 10669 10669 10668 10665 10663 10661 10661 10661 10661 10661 10660 10659 10658 10657 10657 10657 10657 10657
10555 10558 10562 10567 10571 10572 10574 10578 10582 10584 10586 10588 10590 10592 10596 10597 10600 10605 10613 10616 10614 10613 10615 10620 10621 10619 10620 10622 10626 10629 10631 10634 10633 10632 10633 10635 10638 10642 10645 10646 10646 10646 10646 10646 10647 10648 10652 10656 10658 10660 10663 10667 10667 10664 10662 10662 10665 10667 10666 10666 10668 10669 10668 10668 10669 10666 10663 10663 10663 10663 10661 10659 10657 10656 10656 10656 10656 10656 10655 10655 10654 10654 10653 10653 10653 10653
10550 10554 10559 10562 10564 10566 10569 10572 10575 10578 10580 10582 10584 10587 10589 10591 10595 10600 10606 10609 10611 10609 10609 10615 10615 10613 10616 10616 10618 10621 10623 10626 10626 10626 10629 10630 10633 10637 10639 10641 10641 10640 10641 10641 10642 10644 10648 10651 10652 10654 10658 10662 10663 10661 10660 10660 10663 10665 10664 10664 10665 10665 10665 10666 10666 10663 10661 10659 10658 10656 10654 10653 10651 10650 10651 10652 10652 10651 10651 10651 10650 10650 10650 10649 10650 10650
10547 10551 10553 10555 10558 10561 10564 10567 10569 10572 10574 10577 10579 10581 10583 10587 10591 10596 10602 10605 10604 10603 10604 10607 10608 10609 10611 10609 10611 10614 10616 10619 10621 10622 10624 10626 10629 10631 10633 10635 10636 10636 10636 10636 10637 10640 10643 10645 10647 10649 10652 10657 10660 10660 10658 10658 10661 10664 10664 10663 10663 10663 10663 10664 10664 10661 10658 10656 10654 10652 10650 10648 10646 10646 10646 10648 10648 10647 10646 10647 10647 10647 10646 10645 10645 10646
10543 10546 10547 10550 10553 10556 10559 10562 10565 10567 10570 10572 10574 10575 10579 10584 10587 10592 10597 10597 10597 10598 10598 10599 10602 10605 10604 10604 10606 10608 10610 10613 10616 10618 10619 10622 10624 10626 10629 10631 10631 10632 10632 10632 10634 10636 10638 10640 10643 10645 10647 10652 10657 10661 10661 10660 10661 10663 10663 10661 10660 10660 10659 10660 10660 10657 10654 10652 10650 10649 10647 10645 10642 10641 10642 10642 10643 10642 10641 10642 10642 10642 10642 10641 10641 10641
10539 10540 10541 10545 10548 10551 10554 10557 10560 10562 10565 10567 10569 10572 10576 10580 10584 10588 10591 10590 10591 10591 10591 10592 10596 10599 10599 10599 10600 10601 10604 10607 10610 10613 10614 10617 10620 10621 10625 10627 10626 10627 10627 10629 10632 10633 10635 10638 10640 10642 10645 10649 10656 10663 10666 10667 10665 10663 10662 10657 10654 10655 10654 10655 10655 10652 10650 10648 10646 10646 10643 10640 10637 10636 10637 10637 10637 10637 10636 10636 10637 10637 10637 10637 10636 10636
10533 10534 10537 10541 10544 10546 10548 10552 10556 10558 10560 10563 10566 10569 10572 10576 10579 10582 10584 10585 10584 10585 10586 10587 10590 10594 10594 10593 10594 10596 10600 10602 10606 10609 10610 10613 10616 10618 10621 10622 10621 10621 10624 10628 10631 10632 10634 10636 10637 10640 10643 10648 10655 10662 10667 10669 10668 10665 10661 10653 10648 10649 10649 10652 10653 10649 10646 10643 10641 10640 10637 10633 10631 10631 10632 10632 10632 10631 10631 10631 10631 10632 10633 10633 10633 10633
10528 10530 10533 10536 10537 10539 10544 10549 10551 10553 10556 10559 10561 10564 10568 10571 10573 10575 10577 10578 10577 10578 10581 10582 10585 10587 10586 10588 10591 10592 10596 10599 10601 10605 10607 10610 10613 10614 10617 10617 10616 10618 10622 10628 10630 10630 10633 10635 10635 10638 10642 10647 10653 10657 10658 10659 10658 10655 10653 10648 10644 10643 10645 10649 10651 10646 10641 10638 10635 10632 10628 10625 10625 10626 10627 10627 10626 10625 10625 10625 10626 10627 10627 10628 10628 10628
10523 10525 10527 10529 10531 10535 10540 10543 10545 10548 10552 10554 10557 10560 10563 10565 10567 10569 10571 10571 10571 10574 10576 10578 10580 10580 10579 10585 10588 10587 10592 10596 10597 10601 10604 10606 10609 10612 10613 10612 10612 10615 10619 10624 10625 10626 10632 10636 10636 10637 10639 10640 10640 10639 10636 10637 10637 10635 10635 10634 10632 10634 10638 10643 10646 10644 10636 10631 10628 10625 10621 10619 10619 10621 10622 10622 10621 10620 10620 10620 10621 10622 10622 10622 10623 10624
10516 10519 10521 10523 10526 10531 10534 10537 10540 10543 10547 10550 10552 10555 10558 10560 10562 10564 10565 10567 10568 10569 10572 10573 10575 10574 10574 10579 10584 10585 10588 10592 10594 10596 10598 10601 10604 10608 10610 10609 10609 10611 10614 10617 10619 10623 10631 10637 10636 10634 10632 10631 10631 10628 10626 10627 10628 10626 10625 10622 10620 10623 10627 10628 10631 10634 10629 10623 10620 10618 10617 10617 10616 10616 10617 10617 10616 10616 10616 10616 10616 10617 10617 10618 10618 10619
10511 10514 10516 10519 10523 10527 10530 10533 10536 10539 10543 10546 10548 10551 10554 10554 10555 10558 10561 10563 10563 10563 10566 10568 10569 10569 10568 10574 10582 10582 10582 10587 10589 10591 10594 10597 10598 10602 10606 10607 10607 10609 10609 10611 10614 10620 10628 10634 10632 10628 10625 10627 10629 10627 10625 10624 10623 10622 10621 10620 10618 10620 10621 10618 10618 10620 10618 10616 10614 10614 10615 10614 10613 10613 10613 10613 10612 10611 10612 10612 10612 10612 10613 10613 10614 10615
10507 10510 10513 10516 10520 10523 10526 10529 10531 10535 10538 10540 10543 10546 10548 10547 10550 10555 10557 10558 10557 10557 10560 10562 10564 10565 10564 10571 10580 10579 10578 10582 10584 10586 10590 10594 10595 10597 10601 10604 10606 10605 10605 10608 10610 10614 10621 10623 10622 10621 10621 10623 10624 10621 10620 10618 10617 10618 10618 10618 10619 10620 10620 10618 10615 10612 10611 10610 10610 10610 10611 10609 10608 10609 10609 10609 10608 10608 10608 10607 10608 10608 10609 10609 10610 10611
10503 10506 10509 10511 10514 10517 10520 10523 10526 10529 10532 10535 10539 10542 10542 10542 10545 10550 10552 10552 10551 10551 10554 10557 10559 10560 10560 10567 10574 10574 10576 10580 10581 10582 10585 10590 10594 10595 10596 10600 10601 10599 10600 10603 10604 10607 10611 10612 10614 10617 10616 10616 10616 10614 10613 10612 10613 10614 10615 10615 10615 10615 10615 10615 10613 10611 10610 10609 10607 10605 10605 10605 10605 10605 10605 10605 10605 10604 10604 10603 10604 10604 10605 10606 10607 10607
10497 10501 10503 10506 10510 10512 10515 10519 10522 10525 10528 10531 10534 10536 10536 10536 10540 10544 10546 10547 10546 10547 10551 10554 10554 10556 10558 10563 10566 10568 10573 10577 10579 10580 10582 10586 10590 10591 10595 10599 10599 10595 10595 10596 10597 10600 10602 10604 10608 10611 10610 10609 10608 10608 10607 10606 10607 10608 10608 10608 10608 10607 10608 10610 10610 10609 10608 10607 10604 10602 10601 10601 10601 10601 10601 10601 10601 10601 10600 10600 10600 10601 10602 10603 10603 10604
10493 10495 10498 10502 10506 10507 10510 10514 10518 10521 10523 10525 10529 10531 10530 10531 10536 10539 10541 10542 10542 10544 10548 10550 10550 10552 10555 10557 10560 10563 10567 10570 10574 10577 10579 10581 10583 10586 10591 10597 10598 10594 10590 10589 10591 10593 10594 10597 10601 10604 10607 10605 10603 10602 10602 10601 10601 10603 10603 10602 10602 10601 10602 10604 10604 10604 10603 10602 10600 10600 10600 10599 10598 10597 10596 10596 10597 10597 10597 10596 10596 10597 10598 10599 10600 10600
10488 10491 10496 10499 10500 10502 10506 10510 10513 10516 10518 10521 10524 10524 10525 10528 10531 10533 10535 10537 10539 10540 10543 10545 10545 10547 10548 10550 10554 10557 10560 10563 10567 10570 10573 10574 10575 10578 10584 10590 10592 10589 10586 10584 10585 10586 10587 10590 10594 10597 10601 10600 10596 10595 10596 10596 10598 10599 10598 10599 10598 10597 10597 10598 10598 10599 10598 10597 10597 10598 10599 10597 10595 10593 10592 10592 10592 10592 10592 10592 10592 10593 10593 10594 10595 10596
10485 10488 10491 10494 10495 10499 10502 10505 10509 10511 10513 10517 10518 10518 10521 10524 10525 10528 10530 10532 10534 10535 10537 10539 10539 10540 10542 10545 10548 10551 10555 10557 10560 10564 10567 10568 10569 10570 10573 10578 10581 10580 10580 10580 10580 10580 10582 10583 10585 10587 10591 10592 10590 10590 10593 10593 10593 10593 10593 10593 10592 10591 10591 10591 10593 10594 10594 10593 10593 10594 10597 10596 10592 10588 10588 10587 10586 10586 10586 10586 10587 10587 10588 10589 10590 10591
10482 10483 10485 10488 10491 10495 10497 10500 10504 10504 10506 10510 10511 10513 10517 10518 10519 10523 10525 10527 10529 10530 10531 10533 10534 10535 10537 10541 10544 10546 10547 10550 10553 10558 10561 10563 10562 10562 10563 10566 10569 10571 10573 10574 10574 10575 10575 10576 10577 10579 10582 10584 10585 10586 10588 10588 10586 10586 10586 10586 10585 10583 10583 10584 10586 10588 10588 10588 10587 10588 10591 10591 10586 10583 10582 10581 10581 10581 10581 10581 10581 10582 10583 10583 10584 10585
10477 10478 10481 10484 10487 10491 10492 10495 10497 10497 10500 10504 10506 10509 10512 10512 10514 10518 10519 10521 10523 10524 10526 10527 10528 10530 10532 10535 10538 10538 10539 10544 10548 10551 10554 10555 10555 10554 10555 10557 10559 10562 10564 10566 10567 10567 10568 10569 10570 10572 10574 10576 10580 10582 10581 10579 10578 10577 10578 10579 10577 10576 10576 10577 10578 10580 10582 10582 10581 10581 10582 10580 10577 10576 10575 10575 10575 10576 10576 10576 10576 10577 10578 10578 10579 10580
10473 10474 10477 10480 10483 10485 10486 10489 10492 10493 10496 10499 10501 10504 10505 10506 10508 10510 10513 10516 10517 10518 10521 10522 10522 10524 10525 10528 10529 10530 10533 10538 10542 10545 10546 10546 10546 10547 10548 10549 10551 10553 10555 10557 10559 10559 10561 10562 10563 10564 10566 10568 10574 10577 10574 10571 10569 10568 10570 10571 10570 10570 10570 10570 10570 10572 10574 10575 10574 10575 10575 10572 10569 10568 10568 10568 10569 10569 10570 10571 10571 10572 10573 10574 10574 10574
10468 10470 10473 10476 10479 10478 10480 10485 10487 10487 10490 10493 10496 10498 10499 10501 10502 10504 10508 10510 10511 10513 10515 10516 10516 10518 10520 10521 10522 10523 10527 10532 10536 10538 10538 10538 10539 10540 10540 10541 10543 10544 10546 10548 10550 10551 10552 10554 10555 10557 10559 10560 10565 10567 10566 10564 10562 10561 10562 10563 10564 10563 10563 10563 10563 10564 10566 10566 10566 10567 10567 10564 10562 10561 10561 10562 10562 10563 10564 10564 10565 10565 10566 10568 10568 10568
10463 10465 10468 10471 10473 10473 10476 10481 10481 10480 10485 10488 10490 10491 10493 10496 10497 10499 10503 10503 10504 10507 10508 10509 10510 10512 10514 10514 10514 10516 10520 10526 10529 10530 10531 10532 10532 10532 10532 10534 10535 10536 10538 10540 10541 10542 10544 10546 10548 10550 10551 10553 10555 10557 10558 10558 10557 10555 10555 10555 10556 10555 10554 10555 10557 10558 10558 10558 10558 10559 10559 10557 10555 10555 10555 10556 10556 10557 10557 10558 10559 10560 10560 10561 10562 10562
10457 10460 10463 10465 10467 10469 10471 10474 10473 10475 10480 10482 10483 10485 10488 10490 10491 10493 10495 10496 10498 10501 10502 10502 10503 10505 10507 10508 10508 10509 10514 10519 10521 10522 10525 10525 10524 10525 10525 10527 10528 10530 10532 10532 10533 10534 10536 10538 10541 10542 10544 10546 10548 10549 10551 10552 10552 10550 10549 10549 10548 10547 10547 10549 10551 10552 10552 10552 10551 10551 10550 10549 10549 10549 10549 10550 10551 10551 10551 10551 10551 10553 10554 10554 10554 10555
10451 10454 10457 10459 10461 10463 10465 10466 10467 10471 10474 10475 10477 10480 10482 10483 10484 10487 10489 10490 10493 10495 10496 10496 10496 10497 10500 10501 10502 10503 10507 10510 10512 10515 10518 10517 10516 10518 10519 10521 10523 10525 10525 10526 10526 10528 10529 10532 10534 10536 10537 10539 10541 10542 10543 10545 10545 10544 10543 10542 10541 10541 10542 10543 10545 10545 10546 10546 10545 10545 10543 10543 10543 10543 10542 10543 10544 10544 10545 10544 10544 10545 10546 10547 10547 10548
10445 10448 10451 10453 10456 10458 10459 10461 10463 10466 10467 10468 10471 10474 10476 10477 10480 10482 10483 10484 10487 10490 10491 10490 10490 10492 10494 10495 10496 10497 10500 10502 10504 10507 10509 10509 10510 10513 10514 10516 10518 10519 10520 10520 10521 10522 10524 10525 10527 10529 10531 10532 10534 10535 10536 10537 10537 10536 10535 10534 10534 10535 10535 10537 10538 10538 10538 10538 10538 10537 10536 10536 10536 10536 10536 10536 10537 10538 10538 10538 10538 10538 10539 10539 10540 10541
10441 10444 10446 10447 10450 10452 10454 10456 10458 10459 10460 10463 10466 10469 10470 10472 10474 10475 10477 10479 10482 10484 10484 10484 10486 10486 10487 10488 10489 10490 10492 10495 10497 10500 10502 10502 10504 10507 10509 10510 10512 10514 10515 10515 10515 10517 10518 10519 10520 10522 10524 10525 10527 10528 10529 10528 10528 10528 10527 10527 10527 10527 10528 10529 10530 10530 10530 10530 10530 10530 10529 10528 10528 10528 10529 10529 10531 10531 10532 10533 10533 10531 10531 10531 10533 10534
10437 10439 10440 10442 10444 10447 10449 10451 10451 10451 10454 10457 10460 10462 10464 10466 10468 10469 10471 10474 10475 10476 10477 10480 10482 10481 10480 10482 10483 10483 10485 10488 10490 10493 10495 10496 10498 10500 10502 10503 10505 10507 10508 10508 10509 10510 10511 10512 10513 10514 10516 10517 10518 10519 10520 10520 10520 10520 10520 10520 10520 10520 10521 10522 10522 10522 10522 10522 10522 10522 10522 10521 10520 10521 10522 10523 10525 10526 10526 10526 10525 10525 10524 10524 10525 10527
10432 10433 10434 10436 10439 10441 10444 10445 10445 10446 10449 10451 10454 10456 10458 10460 10461 10463 10466 10467 10468 10470 10472 10474 10475 10475 10475 10476 10477 10477 10478 10480 10481 10484 10488 10490 10493 10494 10495 10495 10497 10499 10500 10501 10502 10503 10504 10504 10505 10506 10507 10508 10510 10510 10511 10511 10511 10512 10512 10512 10512 10513 10514 10514 10514 10514 10514 10514 10514 10514 10514 10514 10513 10514 10514 10515 10518 10520 10520 10519 10518 10517 10517 10517 10519 10521
10426 10427 10429 10432 10434 10436 10438 10439 10440 10440 10443 10446 10448 10450 10452 10454 10455 10458 10460 10461 10462 10464 10466 10466 10467 10469 10470 10470 10470 10470 10471 10473 10474 10476 10480 10483 10486 10489 10489 10488 10490 10491 10492 10493 10494 10496 10497 10497 10497 10498 10499 10499 10501 10502 10502 10502 10502 10503 10503 10503 10504 10505 10506 10506 10506 10506 10507 10506 10506 10506 10506 10506 10506 10506 10506 10507 10509 10510 10511 10511 10511 10510 10510 10512 10513 10515
10420 10421 10424 10427 10429 10430 10431 10432 10433 10434 10436 10439 10442 10444 10446 10448 10450 10452 10453 10454 10455 10457 10458 10459 10460 10463 10464 10464 10463 10463 10464 10466 10468 10470 10473 10475 10479 10482 10483 10482 10483 10484 10485 10486 10487 10488 10489 10490 10490 10490 10491 10491 10492 10493 10493 10493 10494 10494 10494 10495 10496 10496 10497 10498 10499 10499 10499 10499 10498 10498 10499 10499 10498 10498 10498 10498 10499 10499 10500 10501 10502 10502 10503 10506 10509 10511
10415 10416 10418 10421 10424 10424 10424 10425 10427 10428 10429 10433 10436 10436 10438 10440 10442 10443 10445 10446 10449 10450 10450 10452 10454 10456 10457 10457 10457 10457 10459 10460 10462 10463 10465 10468 10471 10474 10475 10476 10477 10478 10478 10479 10479 10480 10480 10481 10481 10482 10482 10483 10483 10483 10484 10484 10484 10485 10485 10486 10487 10488 10489 10490 10491 10491 10491 10491 10491 10490 10491 10491 10490 10490 10489 10489 10490 10490 10490 10491 10492 10493 10495 10498 10502 10505
10409 10410 10411 10414 10416 10416 10417 10419 10420 10422 10424 10427 10428 10427 10428 10432 10434 10435 10437 10439 10441 10442 10444 10446 10447 10448 10449 10450 10450 10451 10453 10454 10455 10456 10458 10460 10463 10466 10468 10469 10471 10472 10472 10472 10472 10472 10472 10472 10472 10473 10474 10474 10474 10474 10474 10475 10476 10476 10477 10478 10479 10479 10480 10481 10482 10483 10483 10483 10482 10482 10482 10482 10482 10481 10481 10481 10481 10481 10482 10482 10483 10484 10485 10488 10492 10495
10403 10403 10404 10407 10408 10407 10409 10412 10413 10415 10419 10420 10418 10417 10420 10424 10426 10428 10430 10432 10434 10435 10436 10438 10440 10441 10442 10443 10444 10445 10446 10447 10448 10449 10451 10454 10456 10458 10460 10463 10465 10466 10466 10464 10463 10463 10463 10463 10464 10464 10465 10464 10464 10464 10465 10466 10466 10466 10467 10468 10469 10470 10471 10472 10474 10475 10474 10474 10473 10473 10473 10473 10472 10472 10472 10472 10473 10473 10473 10473 10474 10474 10475 10477 10480 10484
10397 10397 10398 10400 10400 10399 10402 10404 10404 10408 10411 10409 10408 10410 10413 10416 10418 10420 10422 10425 10426 10427 10428 10430 10432 10433 10434 10435 10436 10437 10438 10439 10440 10442 10444 10447 10448 10450 10453 10455 10457 10457 10456 10455 10455 10455 10456 10455 10455 10456 10456 10455 10454 10455 10456 10456 10456 10457 10458 10458 10459 10460 10460 10462 10465 10465 10464 10464 10464 10463 10463 10463 10463 10462 10462 10463 10463 10463 10464 10464 10464 10464 10465 10467 10469 10472
10390 10391 10391 10391 10390 10392 10395 10395 10396 10400 10402 10401 10401 10404 10407 10409 10410 10411 10415 10417 10418 10419 10421 10422 10424 10425 10426 10427 10428 10429 10429 10430 10431 10433 10436 10439 10440 10441 10444 10445 10445 10446 10446 10447 10447 10447 10447 10446 10446 10447 10448 10447 10446 10446 10446 10446 10446 10447 10448 10448 10447 10448 10449 10451 10454 10454 10453 10453 10454 10453 10452 10452 10452 10452 10452 10452 10452 10453 10454 10454 10454 10454 10455 10457 10458 10460
10381 10382 10382 10381 10382 10385 10387 10389 10389 10391 10393 10395 10396 10397 10399 10401 10402 10404 10407 10408 10410 10412 10413 10414 10415 10416 10417 10418 10419 10419 10420 10420 10422 10426 10429 10431 10432 10432 10433 10435 10435 10436 10437 10437 10438 10438 10437 10436 10437 10439 10439 10439 10439 10438 10437 10437 10436 10436 10437 10436 10435 10436 10437 10439 10441 10442 10442 10442 10442 10442 10442 10441 10441 10442 10441 10441 10441 10443 10443 10443 10443 10444 10445 10447 10448 10449
10371 10374 10375 10374 10376 10379 10382 10383 10382 10381 10384 10388 10389 10388 10390 10393 10394 10397 10399 10401 10402 10404 10404 10405 10406 10407 10409 10409 10409 10410 10409 10411 10416 10420 10420 10421 10422 10422 10423 10425 10425 10426 10427 10427 10427 10428 10428 10427 10428 10429 10430 10430 10430 10428 10427 10427 10427 10427 10426 10425 10424 10425 10427 10428 10429 10430 10430 10431 10431 10431 10431 10431 10431 10431 10431 10431 10431 10432 10432 10432 10433 10433 10434 10436 10437 10438
10363 10365 10367 10368 10370 10370 10372 10374 10373 10372 10375 10380 10381 10380 10381 10384 10387 10390 10392 10394 10395 10394 10394 10396 10397 10399 10401 10400 10400 10401 10402 10405 10411 10411 10408 10409 10412 10413 10414 10415 10416 10416 10417 10417 10417 10418 10419 10419 10419 10420 10421 10421 10421 10420 10418 10418 10419 10418 10418 10417 10416 10416 10417 10418 10418 10418 10419 10419 10419 10420 10420 10421 10421 10421 10421 10420 10420 10422 10422 10422 10422 10423 10424 10425 10426 10426
10353 10356 10358 10360 10360 10358 10360 10364 10364 10363 10367 10371 10372 10372 10372 10375 10378 10381 10383 10387 10388 10385 10386 10388 10388 10390 10391 10389 10392 10397 10397 10397 10401 10401 10399 10400 10402 10403 10405 10406 10406 10407 10408 10408 10408 10408 10409 10410 10411 10411 10412 10413 10413 10412 10411 10410 10410 10410 10410 10409 10408 10407 10408 10408 10408 10407 10408 10408 10408 10409 10409 10410 10410 10411 10411 10410 10410 10412 10412 10412 10412 10413 10413 10415 10415 10415
10343 10347 10349 10349 10348 10348 10352 10355 10353 10354 10359 10362 10363 10364 10364 10365 10368 10370 10374 10378 10378 10375 10376 10380 10381 10381 10380 10380 10385 10390 10388 10386 10390 10392 10391 10391 10393 10394 10395 10396 10397 10398 10399 10399 10400 10400 10400 10401 10402 10403 10404 10404 10404 10404 10403 10402 10401 10401 10400 10399 10398 10398 10398 10398 10398 10397 10397 10397 10397 10398 10398 10398 10400 10401 10401 10401 10401 10401 10403 10403 10403 10404 10404 10404 10404 10404
10333 10339 10339 10336 10337 10341 10344 10344 10343 10346 10351 10354 10354 10355 10356 10356 10357 10359 10363 10367 10367 10365 10366 10370 10372 10373 10373 10374 10378 10379 10377 10377 10380 10382 10382 10382 10383 10384 10385 10386 10386 10387 10388 10389 10390 10390 10391 10392 10393 10393 10394 10394 10395 10394 10394 10393 10392 10391 10390 10389 10389 10388 10387 10387 10387 10386 10387 10387 10386 10386 10387 10387 10388 10390 10391 10392 10391 10392 10393 10394 10394 10394 10395 10394 10394 10393
10324 10329 10327 10325 10330 10334 10333 10333 10335 10339 10343 10344 10345 10347 10347 10347 10348 10349 10352 10356 10357 10357 10358 10360 10363 10365 10365 10367 10368 10369 10368 10369 10370 10372 10373 10373 10373 10374 10374 10375 10376 10376 10377 10378 10379 10379 10379 10381 10382 10382 10383 10383 10383 10382 10382 10381 10381 10380 10380 10379 10378 10378 10377 10376 10376 10376 10376 10376 10376 10376 10376 10376 10377 10379 10381 10382 10382 10382 10384 10384 10384 10384 10384 10384 10384 10384
10315 10318 10317 10317 10321 10323 10321 10322 10326 10329 10332 10334 10336 10337 10337 10338 10339 10340 10342 10344 10345 10347 10349 10351 10353 10354 10355 10357 10358 10359 10359 10360 10361 10362 10364 10364 10365 10365 10365 10365 10365 10365 10366 10367 10368 10369 10369 10370 10371 10371 10371 10371 10371 10370 10370 10370 10369 10368 10368 10367 10366 10365 10365 10364 10364 10365 10365 10365 10365 10365 10365 10365 10366 10367 10368 10370 10371 10372 10373 10373 10373 10374 10373 10372 10374 10375
10306 10308 10309 10309 10310 10311 10312 10313 10315 10318 10321 10324 10325 10326 10327 10328 10330 10330 10332 10333 10334 10335 10338 10341 10342 10343 10345 10347 10349 10350 10350 10351 10351 10352 10353 10354 10354 10354 10354 10355 10355 10355 10355 10356 10357 10358 10359 10360 10360 10361 10360 10359 10359 10359 10359 10359 10358 10356 10355 10354 10354 10353 10353 10352 10352 10353 10352 10352 10353 10353 10353 10354 10354 10354 10355 10356 10357 10358 10360 10360 10361 10362 10361 10361 10361 10363
10298 10300 10301 10300 10299 10301 10304 10306 10307 10309 10311 10314 10315 10316 10317 10319 10320 10321 10322 10324 10323 10324 10326 10329 10331 10333 10335 10337 10338 10340 10341 10341 10341 10342 10342 10343 10343 10343 10344 10344 10344 10344 10344 10345 10347 10348 10348 10348 10349 10348 10348 10347 10347 10347 10347 10346 10345 10344 10342 10342 10342 10342 10341 10341 10340 10340 10340 10340 10340 10341 10341 10341 10342 10342 10342 10343 10342 10343 10345 10347 10348 10349 10349 10349 10348 10349
10289 10290 10289 10288 10289 10291 10295 10298 10299 10300 10302 10303 10305 10307 10307 10309 10310 10311 10312 10314 10314 10314 10315 10317 10320 10322 10324 10326 10327 10328 10329 10330 10330 10330 10331 10331 10332 10333 10334 10333 10332 10332 10333 10334 10336 10336 10336 10336 10336 10335 10335 10334 10334 10334 10333 10332 10332 10331 10330 10329 10329 10330 10330 10330 10329 10328 10328 10327 10327 10327 10328 10328 10329 10329 10329 10329 10329 10329 10330 10332 10333 10334 10336 10337 10335 10334
10280 10279 10278 10278 10280 10282 10285 10288 10290 10290 10291 10292 10294 10296 10297 10298 10299 10300 10302 10303 10304 10305 10305 10306 10308 10310 10312 10314 10316 10317 10318 10319 10318 10318 10319 10320 10321 10322 10322 10322 10321 10321 10322 10323 10324 10324 10323 10322 10322 10321 10321 10321 10321 10321 10320 10320 10319 10317 10316 10316 10317 10317 10318 10318 10317 10316 10315 10314 10313 10313 10313 10314 10315 10315 10316 10316 10315 10316 10316 10316 10317 10319 10322 10324 10323 10321
10270 10270 10270 10271 10272 10274 10277 10278 10279 10279 10280 10282 10285 10286 10287 10288 10289 10290 10291 10293 10294 10295 10295 10296 10297 10298 10300 10302 10304 10305 10307 10307 10307 10307 10306 10307 10309 10310 10310 10309 10309 10309 10310 10311 10311 10310 10309 10309 10309 10308 10308 10308 10308 10308 10308 10307 10305 10303 10303 10304 10305 10305 10306 10305 10304 10303 10302 10300 10299 10298 10298 10299 10300 10300 10301 10302 10301 10301 10301 10302 10303 10303 10305 10310 10311 10309
10262 10262 10263 10263 10263 10266 10269 10269 10268 10268 10270 10273 10275 10276 10276 10277 10278 10279 10281 10282 10282 10283 10284 10284 10285 10286 10287 10289 10290 10292 10294 10295 10296 10295 10295 10295 10297 10298 10298 10297 10298 10298 10298 10299 10298 10297 10297 10296 10296 10296 10296 10296 10296 10296 10295 10293 10291 10291 10291 10292 10292 10293 10292 10292 10291 10290 10288 10286 10285 10284 10283 10284 10284 10285 10286 10287 10287 10286 10286 10287 10289 10289 10290 10292 10295 10296